BEE238 EGJJ-EGHI

Flight info

Callsign BEE238
Flight time 0h 32m
Altitude 13000
Route ORTAC Q41 THRED
Aircraft DH8D/M-SDE2E3FGRY/H

Departure

Time 2026-05-08 12:45
Airport Jersey Airport (EGJJ)

Arrival

Time 2026-05-08 13:17
Airport Southampton Airport (EGHI)
Time Latitude Longitude Altitude Speed Heading
2026-05-08 12:18 49.20562 -2.19639 275 ft 0 kts 161°
2026-05-08 12:37 49.20567 -2.19642 274 ft 2 kts 161°
2026-05-08 12:37 49.20581 -2.19649 274 ft 2 kts 161°
2026-05-08 12:38 49.20595 -2.19657 274 ft 2 kts 162°
2026-05-08 12:38 49.20610 -2.19664 274 ft 2 kts 161°
2026-05-08 12:38 49.20624 -2.19669 274 ft 2 kts 178°
2026-05-08 12:38 49.20639 -2.19667 274 ft 2 kts 195°
2026-05-08 12:39 49.20650 -2.19660 274 ft 1 kts 208°
2026-05-08 12:39 49.20651 -2.19660 274 ft 0 kts 207°
2026-05-08 12:42 49.20634 -2.19673 274 ft 10 kts 208°
2026-05-08 12:42 49.20608 -2.19774 274 ft 13 kts 266°
2026-05-08 12:42 49.20577 -2.19934 273 ft 15 kts 198°
2026-05-08 12:42 49.20515 -2.19991 273 ft 12 kts 286°
2026-05-08 12:43 49.20540 -2.20114 273 ft 12 kts 287°
2026-05-08 12:43 49.20565 -2.20244 273 ft 15 kts 288°
2026-05-08 12:43 49.20604 -2.20442 272 ft 20 kts 286°
2026-05-08 12:43 49.20624 -2.20556 272 ft 0 kts 277°
2026-05-08 12:44 49.20626 -2.20632 272 ft 12 kts 270°
2026-05-08 12:44 49.20681 -2.20700 272 ft 11 kts 22°
2026-05-08 12:44 49.20704 -2.20643 272 ft 0 kts 82°
2026-05-08 12:44 49.20707 -2.20599 272 ft 23 kts 83°
2026-05-08 12:45 49.20772 -2.19819 274 ft 118 kts 83°
2026-05-08 12:45 49.20892 -2.18308 429 ft 157 kts 89°
2026-05-08 12:45 49.20991 -2.16546 895 ft 174 kts 88°
2026-05-08 12:45 49.21122 -2.14690 1439 ft 182 kts 86°
2026-05-08 12:46 49.21270 -2.12725 2029 ft 189 kts 85°
2026-05-08 12:46 49.21777 -2.10894 2621 ft 197 kts 49°
2026-05-08 12:46 49.22898 -2.09655 3260 ft 203 kts 35°
2026-05-08 12:46 49.24103 -2.08545 3882 ft 207 kts 34°
2026-05-08 12:47 49.25347 -2.07407 4503 ft 212 kts 34°
2026-05-08 12:47 49.26623 -2.06228 5128 ft 217 kts 34°
2026-05-08 12:47 49.27919 -2.05024 5753 ft 221 kts 32°
2026-05-08 12:47 49.29387 -2.04289 6369 ft 227 kts
2026-05-08 12:48 49.30975 -2.04154 7011 ft 231 kts
2026-05-08 12:48 49.32587 -2.04052 7643 ft 234 kts
2026-05-08 12:48 49.34228 -2.03957 8311 ft 238 kts
2026-05-08 12:48 49.35872 -2.03865 8944 ft 241 kts
2026-05-08 12:49 49.37547 -2.03774 9542 ft 243 kts
2026-05-08 12:49 49.39246 -2.03682 10175 ft 245 kts
2026-05-08 12:49 49.40943 -2.03591 10836 ft 247 kts
2026-05-08 12:49 49.42656 -2.03499 11475 ft 248 kts
2026-05-08 12:50 49.44374 -2.03408 12095 ft 249 kts
2026-05-08 12:50 49.46114 -2.03314 12698 ft 255 kts
2026-05-08 12:50 49.47956 -2.03215 12914 ft 276 kts
2026-05-08 12:50 49.49968 -2.03108 12986 ft 299 kts
2026-05-08 12:51 49.52133 -2.02994 13006 ft 320 kts
2026-05-08 12:51 49.56668 -2.02760 13019 ft 321 kts
2026-05-08 12:51 49.58870 -2.02651 13004 ft 315 kts
2026-05-08 12:52 49.61073 -2.02539 12983 ft 309 kts
2026-05-08 12:52 49.65294 -2.02321 12996 ft 299 kts
2026-05-08 12:52 49.67383 -2.02211 13002 ft 296 kts
2026-05-08 12:53 49.69446 -2.02102 12970 ft 294 kts
2026-05-08 12:53 49.71472 -2.01995 12984 ft 291 kts
2026-05-08 12:53 49.73478 -2.01889 12976 ft 289 kts
2026-05-08 12:53 49.75513 -2.01780 12999 ft 291 kts
2026-05-08 12:54 49.77549 -2.01670 13017 ft 293 kts
2026-05-08 12:54 49.79595 -2.01559 13010 ft 295 kts
2026-05-08 12:54 49.81649 -2.01449 13005 ft 297 kts
2026-05-08 12:54 49.83738 -2.01337 13014 ft 299 kts
2026-05-08 12:55 49.85804 -2.01226 13011 ft 299 kts
2026-05-08 12:55 49.87894 -2.01115 13004 ft 296 kts
2026-05-08 12:55 49.89925 -2.01008 13002 ft 294 kts
2026-05-08 12:55 49.91973 -2.00899 13000 ft 291 kts
2026-05-08 12:56 49.93974 -2.00792 13008 ft 289 kts
2026-05-08 12:56 49.96001 -2.00683 12992 ft 287 kts
2026-05-08 12:56 49.97972 -2.00578 13011 ft 285 kts
2026-05-08 12:56 49.99948 -2.00338 12998 ft 284 kts 12°
2026-05-08 12:57 50.01792 -1.99304 13008 ft 281 kts 24°
2026-05-08 12:57 50.03598 -1.98068 13006 ft 280 kts 25°
2026-05-08 12:57 50.05365 -1.96853 13005 ft 280 kts 25°
2026-05-08 12:57 50.07135 -1.95637 13003 ft 279 kts 24°
2026-05-08 12:58 50.08928 -1.94410 12994 ft 278 kts 24°
2026-05-08 12:58 50.10687 -1.93207 12995 ft 277 kts 24°
2026-05-08 12:58 50.12441 -1.92010 12995 ft 277 kts 24°
2026-05-08 12:58 50.14207 -1.90806 12990 ft 276 kts 24°
2026-05-08 12:59 50.15966 -1.89606 12989 ft 275 kts 24°
2026-05-08 12:59 50.17744 -1.88393 12991 ft 279 kts 24°
2026-05-08 12:59 50.19535 -1.87169 12986 ft 282 kts 24°
2026-05-08 12:59 50.21347 -1.85930 12995 ft 285 kts 24°
2026-05-08 13:00 50.23168 -1.84686 13001 ft 288 kts 24°
2026-05-08 13:00 50.25002 -1.83432 12996 ft 291 kts 24°
2026-05-08 13:00 50.26850 -1.82169 12990 ft 289 kts 24°
2026-05-08 13:00 50.28689 -1.80913 12994 ft 287 kts 24°
2026-05-08 13:01 50.30522 -1.79660 12992 ft 286 kts 24°
2026-05-08 13:01 50.32339 -1.78416 12997 ft 284 kts 24°
2026-05-08 13:01 50.34147 -1.77177 12992 ft 282 kts 24°
2026-05-08 13:01 50.35941 -1.75947 12987 ft 281 kts 24°
2026-05-08 13:02 50.37735 -1.74715 12854 ft 285 kts 24°
2026-05-08 13:02 50.39568 -1.73455 12558 ft 291 kts 24°
2026-05-08 13:02 50.41449 -1.72161 12254 ft 295 kts 24°
2026-05-08 13:02 50.43327 -1.70870 11954 ft 297 kts 24°
2026-05-08 13:03 50.45236 -1.69555 11657 ft 299 kts 24°
2026-05-08 13:03 50.47134 -1.68246 11358 ft 301 kts 24°
2026-05-08 13:03 50.49071 -1.66909 11049 ft 302 kts 24°
2026-05-08 13:03 50.50980 -1.65591 10754 ft 302 kts 24°
2026-05-08 13:04 50.52887 -1.64273 10770 ft 292 kts 24°
2026-05-08 13:04 50.54694 -1.63025 10823 ft 282 kts 24°
2026-05-08 13:04 50.56450 -1.61810 10880 ft 273 kts 24°
2026-05-08 13:04 50.58169 -1.60619 10933 ft 266 kts 24°
2026-05-08 13:05 50.59855 -1.59448 10982 ft 265 kts 24°
2026-05-08 13:05 50.61547 -1.58270 11012 ft 266 kts 24°
2026-05-08 13:05 50.63250 -1.57084 11010 ft 268 kts 24°
2026-05-08 13:05 50.64964 -1.55890 11015 ft 270 kts 24°
2026-05-08 13:06 50.66700 -1.54677 10723 ft 277 kts 24°
2026-05-08 13:06 50.68333 -1.53015 10327 ft 284 kts 39°
2026-05-08 13:06 50.69849 -1.50952 9968 ft 288 kts 41°
2026-05-08 13:06 50.71349 -1.48889 9591 ft 285 kts 41°
2026-05-08 13:07 50.72831 -1.46849 9210 ft 283 kts 41°
2026-05-08 13:07 50.74298 -1.44836 8827 ft 281 kts 41°
2026-05-08 13:07 50.75779 -1.42807 8444 ft 278 kts 41°
2026-05-08 13:07 50.77218 -1.40833 8157 ft 273 kts 41°
2026-05-08 13:08 50.78636 -1.38888 8071 ft 260 kts 41°
2026-05-08 13:08 50.79962 -1.37067 8047 ft 247 kts 41°
2026-05-08 13:08 50.81226 -1.35330 8048 ft 240 kts 41°
2026-05-08 13:08 50.82502 -1.33565 8052 ft 243 kts 42°
2026-05-08 13:09 50.83775 -1.31807 7861 ft 241 kts 42°
2026-05-08 13:09 50.85032 -1.30084 7432 ft 238 kts 42°
2026-05-08 13:09 50.86281 -1.28365 6987 ft 240 kts 42°
2026-05-08 13:09 50.87545 -1.26626 6545 ft 242 kts 42°
2026-05-08 13:10 50.88802 -1.24900 6111 ft 244 kts 42°
2026-05-08 13:10 50.90131 -1.23229 5663 ft 245 kts 31°
2026-05-08 13:10 50.91698 -1.22140 5224 ft 246 kts 22°
2026-05-08 13:10 50.93300 -1.21175 4788 ft 248 kts 22°
2026-05-08 13:11 50.94979 -1.20569 4335 ft 249 kts
2026-05-08 13:11 50.96724 -1.20516 3920 ft 249 kts
2026-05-08 13:11 50.98418 -1.20487 3934 ft 240 kts
2026-05-08 13:11 51.00111 -1.20472 3603 ft 248 kts
2026-05-08 13:12 51.01850 -1.20465 3245 ft 251 kts
2026-05-08 13:12 51.03571 -1.20512 2861 ft 245 kts 356°
2026-05-08 13:12 51.05119 -1.21429 2594 ft 233 kts 324°
2026-05-08 13:12 51.06091 -1.23393 2520 ft 225 kts 295°
2026-05-08 13:13 51.06705 -1.25688 2492 ft 226 kts 292°
2026-05-08 13:13 51.07236 -1.28041 2469 ft 226 kts 279°
2026-05-08 13:13 51.07363 -1.30522 2217 ft 229 kts 271°
2026-05-08 13:13 51.07434 -1.33079 1863 ft 236 kts 269°
2026-05-08 13:14 51.07106 -1.35610 1504 ft 229 kts 239°
2026-05-08 13:14 51.06116 -1.37341 1443 ft 198 kts 208°
2026-05-08 13:14 51.04925 -1.37804 1398 ft 162 kts 169°
2026-05-08 13:14 51.03904 -1.37513 1392 ft 142 kts 168°
2026-05-08 13:15 51.02933 -1.37263 1514 ft 142 kts 168°
2026-05-08 13:15 51.01971 -1.36948 1561 ft 142 kts 156°
2026-05-08 13:15 51.01152 -1.36048 1446 ft 147 kts 141°
2026-05-08 13:15 51.00310 -1.35023 1235 ft 151 kts 142°
2026-05-08 13:16 50.99471 -1.34046 984 ft 146 kts 148°
2026-05-08 13:16 50.98537 -1.33712 726 ft 139 kts 187°
2026-05-08 13:16 50.97634 -1.34217 508 ft 137 kts 199°
2026-05-08 13:16 50.96733 -1.34738 352 ft 135 kts 196°
2026-05-08 13:17 50.95863 -1.35221 132 ft 132 kts 198°
2026-05-08 13:17 50.95037 -1.35674 48 ft 102 kts 199°
2026-05-08 13:17 50.94585 -1.35926 44 ft 50 kts 198°
2026-05-08 13:17 50.94366 -1.36048 43 ft 19 kts 198°
2026-05-08 13:18 50.94299 -1.36064 43 ft 9 kts 298°
2026-05-08 13:18 50.94410 -1.36024 43 ft 27 kts 20°
2026-05-08 13:18 50.94551 -1.35963 44 ft 12 kts 330°
2026-05-08 13:18 50.94586 -1.36075 44 ft 10 kts 293°
2026-05-08 13:19 50.94639 -1.36140 45 ft 9 kts 345°
2026-05-08 13:19 50.94706 -1.36116 45 ft 16 kts 20°
2026-05-08 13:19 50.94844 -1.36040 46 ft 15 kts 20°
2026-05-08 13:19 50.94908 -1.36115 46 ft 12 kts 290°
2026-05-08 13:20 50.94956 -1.36169 47 ft 8 kts 19°
2026-05-08 13:20 50.94978 -1.36157 47 ft 0 kts 19°